Kansas City, MO

7:07 PM CDT on March 30, 2017 (GMT -0500)
Kansas City Downtown

Weather History for KMKC - January, 2014

Change the Weather History Date:

Saturday, January 11, 2014

  Actual Average Record
Temperature  
Mean Temperature 40 °F -  
Max Temperature 46 °F 36 °F 64 °F (2017)
Min Temperature 33 °F 21 °F -2 °F (1997)
Degree Days  
Heating Degree Days 26    
Moisture  
Dew Point 30 °F    
Average Humidity 75    
Maximum Humidity 89    
Minimum Humidity 52    
Precipitation  
Precipitation 0.00 in - - ()
Sea Level Pressure  
Sea Level Pressure 29.80 in    
Wind  
Wind Speed 7 mph (WSW)    
Max Wind Speed 12 mph    
Max Gust Speed 23 mph    
Visibility 9 miles    
Events Rain    
Averages and records for this station are not official NWS values.
T = Trace of Precipitation, MM = Missing Value Source: NWS Daily Summary

Daily Weather History Graph

Daily Weather History Graph

Search for Another Location

Airport or City:

Trip Planner

Search our weather history database for the weather conditions in past years. The results will help you decide how hot, cold, wet, or windy it might be!

Date:

Astronomy

Jan. 11, 2014 Rise Set
Actual Time 7:37 AM CST 5:15 PM CST
Civil Twilight 7:07 AM CST 5:45 PM CST
Nautical Twilight 6:34 AM CST 6:18 PM CST
Astronomical Twilight 6:02 AM CST 6:50 PM CST
Moon 2:00 PM CST (1/11) 3:43 AM CST (1/11)
Length of Visible Light 10h 37m
Length of Day
9h 38m
Waxing Gibbous, 83% of the Moon is Illuminated
Jan 11
Waxing Gibbous
Jan 15
Full
Jan 23
Last Quarter
Jan 30
New
Feb 6
First Quarter

Hourly Weather History & Observations

Time (CST) Temp. Windchill Dew Point Humidity Pressure Visibility Wind Dir Wind Speed Gust Speed Precip Events Conditions
12:25 AM 37.0 °F 32.4 °F 33.1 °F 86% 29.64 in 10.0 mi WSW 5.8 mph - 0.00 in Rain Light Rain
12:54 AM 36.0 °F 30.3 °F 33.1 °F 89% 29.66 in 8.0 mi WSW 6.9 mph - 0.00 in Rain Light Rain
1:54 AM 36.0 °F 29.6 °F 33.1 °F 89% 29.66 in 9.0 mi West 8.1 mph - 0.00 in   Overcast
2:28 AM 36.0 °F 31.1 °F 32.0 °F 86% 29.68 in 9.0 mi West 5.8 mph - N/A   Mostly Cloudy
2:54 AM 35.1 °F 28.6 °F 30.9 °F 85% 29.71 in 9.0 mi West 8.1 mph - N/A   Mostly Cloudy
3:13 AM 35.1 °F 30.1 °F 30.9 °F 85% 29.70 in 8.0 mi West 5.8 mph - N/A   Overcast
3:54 AM 36.0 °F 30.3 °F 32.0 °F 86% 29.71 in 7.0 mi West 6.9 mph - N/A   Overcast
4:52 AM 35.6 °F 30.7 °F 30.2 °F 81% 29.72 in 7.0 mi SW 5.8 mph - N/A   Scattered Clouds
4:54 AM 35.1 °F 30.1 °F 30.9 °F 85% 29.73 in 7.0 mi SW 5.8 mph - N/A   Partly Cloudy
5:54 AM 34.0 °F 28.0 °F 30.0 °F 85% 29.74 in 6.0 mi SW 6.9 mph - N/A   Clear
6:54 AM 33.1 °F 26.9 °F 28.9 °F 85% 29.76 in 7.0 mi SW 6.9 mph - N/A   Clear
7:54 AM 33.1 °F 27.7 °F 28.9 °F 85% 29.79 in 7.0 mi SW 5.8 mph - N/A   Mostly Cloudy
8:54 AM 34.0 °F 28.0 °F 28.9 °F 82% 29.79 in 9.0 mi SW 6.9 mph - N/A   Overcast
9:54 AM 35.1 °F 28.6 °F 30.0 °F 82% 29.83 in 10.0 mi WSW 8.1 mph - N/A   Overcast
10:54 AM 39.0 °F 34.8 °F 32.0 °F 76% 29.83 in 10.0 mi WSW 5.8 mph - N/A   Scattered Clouds
11:54 AM 44.1 °F 39.0 °F 30.9 °F 60% 29.82 in 10.0 mi WNW 9.2 mph 18.4 mph N/A   Clear
12:54 PM 46.0 °F 41.4 °F 30.0 °F 54% 29.81 in 10.0 mi WNW 9.2 mph - N/A   Clear
1:54 PM 46.9 °F - 30.9 °F 54% 29.82 in 10.0 mi NW 10.4 mph 19.6 mph N/A   Clear
2:54 PM 46.9 °F - 30.0 °F 52% 29.84 in 10.0 mi NW 11.5 mph 23.0 mph N/A   Clear
3:54 PM 46.9 °F - 30.0 °F 52% 29.87 in 10.0 mi WNW 11.5 mph - N/A   Clear
4:54 PM 45.0 °F 40.6 °F 30.0 °F 56% 29.89 in 10.0 mi WNW 8.1 mph - N/A   Clear
5:54 PM 42.1 °F 40.2 °F 28.9 °F 60% 29.90 in 10.0 mi WSW 3.5 mph - N/A   Clear
6:54 PM 37.0 °F 34.5 °F 28.0 °F 70% 29.91 in 10.0 mi SSW 3.5 mph - N/A   Clear
7:54 PM 37.0 °F 32.4 °F 28.9 °F 73% 29.92 in 10.0 mi SSW 5.8 mph - N/A   Clear
8:54 PM 36.0 °F - 28.0 °F 73% 29.94 in 10.0 mi Calm Calm - N/A   Clear
9:54 PM 37.9 °F 35.5 °F 28.0 °F 68% 29.92 in 10.0 mi SSW 3.5 mph - N/A   Clear
10:54 PM 35.1 °F 32.2 °F 27.0 °F 72% 29.92 in 10.0 mi SSW 3.5 mph - N/A   Clear
11:54 PM 33.1 °F - 27.0 °F 78% 29.90 in 10.0 mi Calm Calm - N/A   Clear